[[{"header":{"parameterUnit":"m.s-1","parameterCategory":1,"la1":30.2991,"la2":30.254,"lo1":-89.0895,"lo2":-89.0444,"dy":0.0017,"dx":0.0017,"nx":28,"ny":28,"refTime":"2024-05-19T03:00:00:Z","depth":0,"parameterNumber":2,"parameterNumberName":"U-component_of_WINDS"},"data":[0,0,0,0,0,0,0,0,0,0,0,0,0,0,0,0,0,0,0,0,0,0,0,0,0,0,0,0,0,0,0,0,0,0,0,0,0,0,0,0,0,0,0,0,0,0,0,0,0,0,0,0,0,0,0,0,0,0,-1.7133,-1.7133,0,-1.7067,-1.7066,-1.7065,-1.6988,-1.6987,-1.6986,-1.6985,-1.6915,-1.6915,-1.6914,0,0,0,0,0,0,0,0,0,0,0,0,0,-1.7192,-1.7192,-1.7133,-1.7132,-1.7132,-1.7067,-1.7066,-1.7065,-1.6988,-1.6987,-1.6985,-1.6984,-1.6916,-1.6915,-1.6914,0,0,0,0,0,0,0,0,0,0,0,0,0,-1.715,-1.7191,-1.7133,-1.7086,-1.7081,-1.7067,-1.7066,-1.7065,-1.6988,-1.6987,-1.6985,-1.6983,-1.6916,-1.6915,-1.6914,-1.6941,0,0,-1.691,-1.691,0,0,0,0,0,0,0,0,-1.7153,-1.7148,-1.7093,-1.7089,-1.7083,-1.7034,-1.7061,-1.7023,-1.6989,-1.7023,-1.6984,-1.6982,-1.6956,-1.6952,-1.6943,-1.6938,-1.6935,-1.691,-1.6909,-1.6909,-1.6909,0,0,0,0,0,0,0,-1.7156,-1.7151,-1.7107,-1.7093,-1.7086,-1.7067,-1.7059,-1.7054,-1.7,-1.702,-1.7014,-1.7008,-1.6953,-1.6944,-1.6941,-1.6934,-1.691,-1.6909,-1.6908,-1.6908,-1.6947,-1.6949,0,0,0,0,0,0,-1.7166,-1.7154,-1.7109,-1.7105,-1.7114,-1.7067,-1.7058,-1.7051,-1.7,-1.6991,-1.7009,-1.7004,-1.6947,-1.6942,-1.6938,-1.6966,-1.6909,-1.6908,-1.6907,-1.6946,-1.6948,-1.6949,0,0,0,0,0,0,-1.7168,-1.7163,-1.7112,-1.7128,-1.712,-1.7068,-1.7061,-1.7051,-1.7042,-1.6992,-1.6982,-1.701,-1.6945,-1.6939,-1.6941,-1.6962,-1.6907,-1.6906,-1.6943,-1.6946,-1.6949,-1.7023,0,0,0,0,0,0,-1.717,-1.7164,-1.7174,-1.7128,-1.7119,-1.7117,-1.7062,-1.7051,-1.704,-1.7033,-1.699,-1.6981,-1.6944,-1.6943,-1.694,-1.696,-1.6905,-1.6941,-1.6945,-1.6948,-1.7018,-1.7028,-1.7036,0,0,0,0,0,-1.7172,-1.7198,-1.7175,-1.717,-1.7131,-1.7118,-1.7112,-1.7069,-1.7043,-1.7052,-1.702,-1.6982,-1.6961,-1.6944,-1.6939,-1.696,-1.694,-1.6944,-1.6947,-1.7014,-1.7026,-1.7036,0,0,0,0,0,0,-1.7248,-1.7191,-1.7165,-1.7177,-1.7153,-1.7105,-1.7116,-1.7083,-1.7065,-1.7059,-1.7006,-1.6997,-1.7004,-1.6982,-1.6964,-1.6983,-1.6945,-1.6948,-1.6997,-1.7008,-1.7016,-1.7021,-1.6904,0,0,0,0,0,-1.7266,-1.7261,-1.7211,-1.7226,-1.7216,-1.7168,-1.7161,-1.7129,-1.7102,-1.7091,-1.7059,-1.7033,-1.702,-1.7013,-1.6998,-1.7015,-1.7003,-1.7026,-1.7035,-1.7043,-1.7046,-1.7051,-1.7061,-1.6962,-1.6962,-1.6962,0,0,-1.7303,-1.7272,-1.7272,-1.7241,-1.7218,-1.7213,-1.716,-1.7157,-1.7152,-1.709,-1.7089,-1.7065,-1.7032,-1.7041,-1.7044,-1.7023,-1.7071,-1.7048,-1.7054,-1.7053,-1.7056,-1.7066,-1.7074,-1.6965,-1.6964,-1.6964,0,0,-1.7369,-1.7345,-1.7354,-1.7333,-1.7299,-1.7267,-1.727,-1.7226,-1.7207,-1.7206,-1.7159,-1.7152,-1.7132,-1.711,-1.7096,-1.7153,-1.7117,-1.715,-1.7195,-1.7201,-1.7209,-1.7215,-1.7234,-1.7242,-1.7153,-1.7153,-1.7153,0,-1.7419,-1.741,-1.7363,-1.7363,-1.735,-1.7294,-1.7303,-1.7284,-1.7247,-1.724,-1.7217,-1.7189,-1.7164,-1.7166,-1.718,-1.7171,-1.7171,-1.7154,-1.7212,-1.7218,-1.7223,-1.724,-1.7248,-1.7157,-1.7157,-1.7156,-1.7156,0,-1.7473,-1.7467,-1.7478,-1.7445,-1.7433,-1.7438,-1.7391,-1.7385,-1.7355,-1.7325,-1.7323,-1.729,-1.7268,-1.7266,-1.7236,-1.7264,-1.7252,-1.7222,-1.7182,-1.7237,-1.7252,-1.7259,-1.7163,-1.7162,-1.716,-1.7159,0,0,-1.7584,-1.7524,-1.7529,-1.7512,-1.747,-1.7465,-1.7466,-1.7444,-1.7439,-1.7416,-1.7415,-1.7398,-1.7369,-1.7354,-1.7321,-1.7327,-1.7372,-1.7295,-1.7294,-1.731,-1.7398,-1.7421,-1.7429,-1.7348,-1.7349,-1.735,-1.74,0,-1.764,-1.7639,-1.7597,-1.7608,-1.7601,-1.7547,-1.7548,-1.7522,-1.7495,-1.7484,-1.7453,-1.7442,-1.7405,-1.7395,-1.7399,-1.7366,-1.7389,-1.7362,-1.7345,-1.7345,-1.7354,-1.7437,-1.7461,-1.751,-1.7406,-1.7407,-1.7408,0,-1.7706,-1.7687,-1.7697,-1.7654,-1.7649,-1.7651,-1.7626,-1.7618,-1.7587,-1.7566,-1.7549,-1.7512,-1.7509,-1.7472,-1.7467,-1.7449,-1.744,-1.7423,-1.7423,-1.7419,-1.7379,-1.7434,-1.7524,-1.7531,-1.7417,-1.7416,-1.7416,0,-1.7785,-1.7761,-1.7763,-1.775,-1.7701,-1.7703,-1.7683,-1.765,-1.7639,-1.7618,-1.761,-1.7589,-1.7577,-1.7561,-1.7518,-1.7496,-1.7517,-1.7478,-1.7499,-1.75,-1.7505,-1.7505,-1.7594,-1.7502,-1.7501,-1.7501,-1.7501,0,-1.7852,-1.7859,-1.7797,-1.7799,-1.7805,-1.7757,-1.7764,-1.7739,-1.771,-1.7705,-1.7657,-1.7653,-1.7598,-1.7587,-1.7554,-1.7554,-1.7549,-1.7531,-1.7522,-1.7535,-1.7537,-1.7527,-1.7522,-1.7503,-1.7503,-1.7502,-1.7502,0,-1.794,-1.7899,-1.7897,-1.7851,-1.7839,-1.7846,-1.7805,-1.7804,-1.7773,-1.7767,-1.7763,-1.7714,-1.7699,-1.7655,-1.7629,-1.7607,-1.7615,-1.7599,-1.7626,-1.762,-1.7643,-1.7641,-1.7728,-1.7736,-1.764,-1.7641,-1.7642,0,-1.7985,-1.7989,-1.7943,-1.7936,-1.7917,-1.7907,-1.7896,-1.7848,-1.7838,-1.7802,-1.7805,-1.7786,-1.7769,-1.7747,-1.7709,-1.7688,-1.767,-1.7702,-1.7666,-1.7679,-1.7668,-1.7668,-1.7668,-1.7709,-1.7711,-1.7712,-1.7712,0,-1.8068,-1.8047,-1.8033,-1.8011,-1.7999,-1.7979,-1.7957,-1.7954,-1.79,-1.7891,-1.7875,-1.7861,-1.7834,-1.7815,-1.7789,-1.7766,-1.773,-1.7724,-1.7727,-1.774,-1.7754,-1.7745,-1.7645,-1.7722,-1.7721,-1.772,-1.772,-1.7719,-1.8135,-1.8136,-1.8103,-1.8088,-1.8066,-1.8046,-1.8043,-1.8011,-1.7997,-1.7972,-1.7944,-1.7931,-1.7899,-1.7859,-1.7839,-1.7827,-1.7808,-1.7814,-1.7815,-1.7817,-1.7822,-1.7758,-1.7823,-1.7822,-1.7822,-1.7822,-1.7822,0,-1.8215,-1.8191,-1.8178,-1.8148,-1.8136,-1.8103,-1.8077,-1.8068,-1.8057,-1.8031,-1.8014,-1.7995,-1.7977,-1.7937,-1.7915,-1.7913,-1.7896,-1.7908,-1.7907,-1.7902,-1.7841,-1.784,-1.7923,-1.7923,-1.7923,-1.7923,-1.7923,-1.7923,-1.8255,-1.8254,-1.823,-1.8217,-1.8193,-1.818,-1.8167,-1.8148,-1.8127,-1.8108,-1.8092,-1.8067,-1.8034,-1.8009,-1.799,-1.7979,-1.7972,-1.799,-1.7973,-1.7917,-1.7907,-1.7898,-1.7896,-1.7989,-1.7989,-1.8035,-1.8035,-1.8036]},{"header":{"parameterUnit":"m.s-1","parameterCategory":1,"la1":30.2991,"la2":30.254,"lo1":-89.0895,"lo2":-89.0444,"dy":0.0017,"dx":0.0017,"nx":28,"ny":28,"refTime":"2024-05-19T03:00:00:Z","depth":0,"parameterNumber":3,"parameterNumberName":"V-component_of_WINDS"},"data":[0,0,0,0,0,0,0,0,0,0,0,0,0,0,0,0,0,0,0,0,0,0,0,0,0,0,0,0,0,0,0,0,0,0,0,0,0,0,0,0,0,0,0,0,0,0,0,0,0,0,0,0,0,0,0,0,0,0,-1.1454,-1.1454,0,-1.1464,-1.1464,-1.1465,-1.1476,-1.1476,-1.1477,-1.1477,-1.1487,-1.1487,-1.1488,0,0,0,0,0,0,0,0,0,0,0,0,0,-1.1443,-1.1443,-1.1454,-1.1454,-1.1454,-1.1464,-1.1464,-1.1465,-1.1476,-1.1476,-1.1477,-1.1477,-1.1487,-1.1487,-1.1488,0,0,0,0,0,0,0,0,0,0,0,0,0,-1.145,-1.1443,-1.1454,-1.1461,-1.1462,-1.1464,-1.1464,-1.1465,-1.1476,-1.1476,-1.1477,-1.1477,-1.1487,-1.1487,-1.1488,-1.1484,0,0,-1.1488,-1.1488,0,0,0,0,0,0,0,0,-1.1449,-1.145,-1.146,-1.1461,-1.1461,-1.1469,-1.1464,-1.1471,-1.1476,-1.1471,-1.1477,-1.1477,-1.1481,-1.1482,-1.1483,-1.1484,-1.1485,-1.1488,-1.1488,-1.1488,-1.1488,0,0,0,0,0,0,0,-1.1449,-1.145,-1.1458,-1.146,-1.1461,-1.1463,-1.1465,-1.1466,-1.1474,-1.1471,-1.1472,-1.1473,-1.1482,-1.1483,-1.1484,-1.1485,-1.1488,-1.1488,-1.1488,-1.1489,-1.1481,-1.1481,0,0,0,0,0,0,-1.1447,-1.1449,-1.1458,-1.1458,-1.1456,-1.1463,-1.1465,-1.1466,-1.1474,-1.1476,-1.1473,-1.1474,-1.1483,-1.1483,-1.1484,-1.1478,-1.1488,-1.1489,-1.1489,-1.1481,-1.1481,-1.148,0,0,0,0,0,0,-1.1447,-1.1448,-1.1457,-1.1454,-1.1455,-1.1463,-1.1465,-1.1467,-1.1468,-1.1476,-1.1477,-1.1473,-1.1483,-1.1484,-1.1483,-1.1479,-1.1489,-1.1489,-1.1482,-1.1481,-1.1481,-1.1468,0,0,0,0,0,0,-1.1447,-1.1448,-1.1447,-1.1454,-1.1456,-1.1457,-1.1465,-1.1467,-1.1468,-1.1469,-1.1476,-1.1477,-1.1483,-1.1483,-1.1483,-1.1479,-1.1489,-1.1482,-1.1481,-1.1481,-1.1469,-1.1467,-1.1466,0,0,0,0,0,-1.1446,-1.1443,-1.1447,-1.1448,-1.1454,-1.1456,-1.1457,-1.1464,-1.1468,-1.1467,-1.1471,-1.1477,-1.1479,-1.1483,-1.1483,-1.1479,-1.1482,-1.1482,-1.1481,-1.147,-1.1468,-1.1466,0,0,0,0,0,0,-1.1436,-1.1445,-1.1448,-1.1448,-1.1451,-1.1458,-1.1457,-1.1462,-1.1464,-1.1465,-1.1473,-1.1475,-1.1473,-1.1476,-1.148,-1.1475,-1.1482,-1.1481,-1.1473,-1.1471,-1.147,-1.1468,-1.1489,0,0,0,0,0,-1.1434,-1.1435,-1.1442,-1.1441,-1.1442,-1.1449,-1.145,-1.1455,-1.1459,-1.1461,-1.1465,-1.1469,-1.147,-1.1471,-1.1473,-1.147,-1.147,-1.1467,-1.1466,-1.1464,-1.1463,-1.146,-1.1458,-1.1478,-1.1478,-1.1478,0,0,-1.1429,-1.1434,-1.1434,-1.1439,-1.1442,-1.1442,-1.145,-1.1451,-1.1451,-1.1461,-1.146,-1.1463,-1.1468,-1.1465,-1.1465,-1.1468,-1.1458,-1.1463,-1.1462,-1.1462,-1.1459,-1.1457,-1.1456,-1.1478,-1.1478,-1.1478,0,0,-1.142,-1.1424,-1.1423,-1.1426,-1.143,-1.1435,-1.1434,-1.144,-1.1443,-1.1442,-1.1449,-1.1449,-1.1452,-1.1454,-1.1455,-1.1445,-1.145,-1.1446,-1.1438,-1.1434,-1.1433,-1.1431,-1.1426,-1.1425,-1.1445,-1.1445,-1.1445,0,-1.1414,-1.1415,-1.1422,-1.1421,-1.1422,-1.1431,-1.1428,-1.1431,-1.1436,-1.1436,-1.144,-1.1442,-1.1446,-1.1443,-1.144,-1.1442,-1.1441,-1.1445,-1.1432,-1.1431,-1.143,-1.1425,-1.1424,-1.1444,-1.1444,-1.1444,-1.1444,0,-1.1406,-1.1406,-1.1405,-1.1408,-1.1409,-1.1408,-1.1414,-1.1414,-1.1418,-1.1422,-1.142,-1.1425,-1.1427,-1.1427,-1.1431,-1.1424,-1.1426,-1.1431,-1.1438,-1.1427,-1.1423,-1.1421,-1.1443,-1.1444,-1.1444,-1.1444,0,0,-1.1392,-1.1398,-1.1398,-1.1398,-1.1403,-1.1403,-1.1402,-1.1403,-1.1403,-1.1406,-1.1404,-1.1405,-1.1409,-1.141,-1.1415,-1.1412,-1.1402,-1.1417,-1.1418,-1.1413,-1.1393,-1.1388,-1.1386,-1.1406,-1.1405,-1.1405,-1.1392,0,-1.1384,-1.1382,-1.1387,-1.1383,-1.1382,-1.1389,-1.1388,-1.139,-1.1393,-1.1393,-1.1396,-1.1396,-1.1402,-1.1403,-1.14,-1.1404,-1.1398,-1.1405,-1.1403,-1.1403,-1.1401,-1.1384,-1.138,-1.1367,-1.139,-1.139,-1.139,0,-1.1374,-1.1375,-1.1371,-1.1374,-1.1374,-1.1373,-1.1373,-1.1373,-1.1375,-1.1378,-1.1378,-1.1383,-1.1381,-1.1387,-1.1384,-1.1388,-1.1388,-1.1389,-1.1389,-1.1388,-1.1395,-1.1382,-1.1364,-1.1361,-1.1388,-1.1388,-1.1388,0,-1.1363,-1.1363,-1.136,-1.1361,-1.1365,-1.1364,-1.1365,-1.1367,-1.1367,-1.1368,-1.1368,-1.1368,-1.1368,-1.1368,-1.1372,-1.1377,-1.1367,-1.1375,-1.1368,-1.1368,-1.1366,-1.1366,-1.1346,-1.1367,-1.1367,-1.1367,-1.1367,0,-1.1353,-1.1349,-1.1355,-1.1353,-1.135,-1.1355,-1.1351,-1.1353,-1.1355,-1.1353,-1.1359,-1.1357,-1.1363,-1.1362,-1.1365,-1.136,-1.1361,-1.1362,-1.1363,-1.1361,-1.136,-1.136,-1.1361,-1.1367,-1.1367,-1.1367,-1.1367,0,-1.134,-1.1344,-1.1341,-1.1344,-1.1344,-1.1341,-1.1344,-1.1342,-1.1344,-1.1342,-1.1341,-1.1346,-1.1344,-1.1348,-1.1347,-1.1349,-1.1342,-1.1345,-1.1341,-1.1342,-1.1335,-1.1335,-1.1313,-1.131,-1.1334,-1.1334,-1.1333,0,-1.1333,-1.133,-1.1332,-1.1331,-1.1332,-1.1331,-1.133,-1.1335,-1.1334,-1.1335,-1.1332,-1.1331,-1.133,-1.1326,-1.1329,-1.1328,-1.133,-1.1322,-1.133,-1.1327,-1.1328,-1.1328,-1.1327,-1.1321,-1.132,-1.132,-1.132,0,-1.1319,-1.1321,-1.132,-1.1318,-1.1317,-1.1317,-1.1317,-1.1316,-1.1321,-1.1319,-1.1317,-1.1316,-1.1314,-1.1312,-1.1311,-1.1312,-1.1316,-1.1317,-1.1316,-1.1313,-1.1311,-1.131,-1.1336,-1.1318,-1.1318,-1.1318,-1.1318,-1.1318,-1.1308,-1.1306,-1.1306,-1.1304,-1.1304,-1.1304,-1.1301,-1.1303,-1.1301,-1.1299,-1.1302,-1.1299,-1.1299,-1.1298,-1.1298,-1.1295,-1.1299,-1.1296,-1.1296,-1.1295,-1.1293,-1.1312,-1.1295,-1.1295,-1.1295,-1.1295,-1.1295,0,-1.1294,-1.1294,-1.1292,-1.1291,-1.1289,-1.1293,-1.1293,-1.129,-1.1287,-1.1287,-1.1285,-1.1282,-1.1279,-1.1281,-1.1278,-1.1275,-1.1277,-1.1274,-1.1274,-1.1274,-1.1291,-1.1292,-1.1273,-1.1273,-1.1273,-1.1273,-1.1273,-1.1273,-1.1286,-1.1281,-1.1283,-1.1277,-1.1277,-1.1273,-1.1273,-1.1271,-1.1271,-1.1266,-1.1264,-1.1265,-1.1265,-1.1262,-1.1259,-1.126,-1.1258,-1.1254,-1.1256,-1.1271,-1.1273,-1.1275,-1.1276,-1.1254,-1.1254,-1.1239,-1.1239,-1.1239]}]]